Regional Weather Roundup
Issued by NWS

Home | Current Version | Previous Version | Text Only | Print | Product List | Glossary Off
Versions: 1 2 3 4 5 6 7 8 9 10 11 12 13 14 15 16 17 18 19 20 21 22 23 24 25 26 27 28 29 30 31 32 33 34 35 36 37 38 39 40 41 42 43 44 45 46 47 48 49

000
ASUS45 KSLC 010910
RWRUT

UTAH REGIONAL WEATHER ROUNDUP
NATIONAL WEATHER SERVICE SALT LAKE CITY UT
300 AM MDT WED OCT 01 2014

UTZ001>011-023>025-011000-

NORTHERN UTAH

CITY           SKY/WX    TMP DP  RH WIND       PRES   REMARKS
HILL AFB       MOCLDY    46  36  66 N5        29.98S
LOGAN          NOT AVBL
OGDEN          PTCLDY    45  37  73 CALM      29.97S
PROVO AIRPORT  MOCLDY    48  43  81 N10       29.96F
SALT LAKE CITY CLOUDY    50  40  68 N6        29.97S
VERNAL         CLOUDY    50  41  71 CALM      29.94S
WENDOVER       CLEAR     50  28  43 SW3       30.02S
HEBER CITY     DRIZZLE   45  45 100 SE3       29.97S
WEST JORDAN    CLOUDY    46  43  87 NW8       30.00R

$$

UTZ012>022-026-027-011000-

SOUTHERN UTAH

CITY           SKY/WX    TMP DP  RH WIND       PRES   REMARKS
BRYCE CANYON   MOCLDY    37  34  89 W7        30.03R WCI  32
CEDAR CITY     PTCLDY    48  40  73 NW3       29.96R
MILFORD        LGT RAIN  50  47  89 N15       29.96R
MOAB/CYNLANDS  CLEAR     52  44  74 CALM      29.85S
PRICE          CLOUDY    47  40  76 CALM      29.95F
ST GEORGE      PTSUNNY   61  39  44 CALM      29.85R
KANAB            N/A     46  43  87 NE6       29.97R

$$

REGIONAL REPORTS     COLORADO/ARIZONA

CITY           SKY/WX    TMP DP  RH WIND       PRES   REMARKS
CRAIG, CO      MOCLDY    44  40  85 NE5       29.98F
GRAND JUNCTION MOCLDY    48  43  82 SE10      29.90F
RIFLE          MOCLDY    44  40  85 NE3       29.97S
MONTROSE       CLOUDY    47  39  74 SE6       29.98S
CORTEZ         CLEAR     41  38  89 E3        29.97F
PAGE, AZ       NOT AVBL
GRAND CANYON   CLEAR     37  35  92 CALM      30.02S FOG
KINGMAN        CLEAR     56  42  59 SE10      29.86S
FLAGSTAFF      CLEAR     41  35  79 VRB3      30.05S

$$

REGIONAL REPORTS    NEVADA/IDAHO/WYOMING

CITY           SKY/WX    TMP DP  RH WIND       PRES   REMARKS
LAS VEGAS, NV  CLEAR     70  36  28 SW6       29.74R
ELY            PTCLDY    42  36  79 N8        30.05R
ELKO           PTCLDY    32  26  78 S3        30.07R
POCATELLO, ID  PTCLDY    42  36  79 SW8       29.99R
BURLEY         MOCLDY    43  35  73 W9        29.98R
EVANSTON, WY   MOCLDY    38  33  82 W7        30.00S WCI  33
ROCK SPRINGS   PTCLDY    38  35  89 SW12      29.97S WCI  30

$$



USA.gov is the U.S. government's official web portal to all federal, state and local government web resources and services.